Orbital Elements at Epoch 2459200.5 (2020-Dec-17.0) TDB
Reference: JPL 14 (heliocentric ecliptic J2000)
Element | Value | Uncertainty (1-sigma) | Units |
e | .268554235462821 | 3.6653e-08 | |
a | 2.55599807442522 | 1.0371e-08 | au |
q | 1.869573965703512 | 8.9781e-08 | au |
i | 4.4355203296546 | 5.952e-06 | deg |
node | 181.6798302115358 | 8.2827e-05 | deg |
peri | 235.403717430903 | 8.455e-05 | deg |
M | 124.5766161908635 | 1.7189e-05 | deg |
tp | 2458683.996534535899 (2019-Jul-19.49653454) | 6.9864e-05 | TDB |
period | 1492.585472719825 4.09 | 9.0843e-06 2.487e-08 | d yr |
n | .2411922175177006 | 1.468e-09 | deg/d |
Q | 3.242422183146927 | 1.3156e-08 | au |
|
| | Orbit Determination Parameters
Additional Information
|